This is the latest recevied weather packets stored in our database for station/object KI4HRG. If no packets are shown the sender has not sent any weather packets the latest 10 day(s).
| Time | Temp. | Humidity | Pressure | Rain* | Wind** | Luminosity | Snow |
|---|---|---|---|---|---|---|---|
| 1777220043 | 25.56° C | 72% | 1013 hPa | 0 mm | - | 807 W/m² | - |
| 1777219740 | 26.11° C | 69% | 1013.2 hPa | 0 mm | - | 755 W/m² | - |
| 1777219437 | 25° C | 72% | 1013.2 hPa | 0 mm | - | 638 W/m² | - |
| 1777219133 | 24.44° C | 72% | 1013.1 hPa | 0 mm | - | 620 W/m² | - |
| 1777218829 | 25° C | 75% | 1013.3 hPa | 0 mm | - | 675 W/m² | - |
| 1777218525 | 24.44° C | 75% | 1013.3 hPa | 0 mm | - | 689 W/m² | - |
| 1777218220 | 23.33° C | 77% | 1013.3 hPa | 0 mm | - | 537 W/m² | - |
| 1777217912 | 23.89° C | 78% | 1013.3 hPa | 0 mm | - | 789 W/m² | - |
| 1777217612 | 23.33° C | 77% | 1013.4 hPa | 0 mm | - | 690 W/m² | - |
| 1777217308 | 23.33° C | 78% | 1013.2 hPa | 0 mm | - | 783 W/m² | - |
| 1777217004 | 23.33° C | 79% | 1013.2 hPa | 0 mm | - | 628 W/m² | - |
| 1777216701 | 23.33° C | 80% | 1013.2 hPa | 0 mm | - | 570 W/m² | - |
| 1777216397 | 23.33° C | 79% | 1013.3 hPa | 0 mm | - | 769 W/m² | - |
| 1777216096 | 22.78° C | 81% | 1013.2 hPa | 0 mm | - | 545 W/m² | - |
| 1777215791 | 22.78° C | 82% | 1013.1 hPa | 0 mm | - | 457 W/m² | - |
| 1777215487 | 22.78° C | 82% | 1012.9 hPa | 0 mm | - | 598 W/m² | - |
| 1777215184 | 22.22° C | 83% | 1013.3 hPa | 0 mm | - | 516 W/m² | - |
| 1777214879 | 22.22° C | 84% | 1013.2 hPa | 0 mm | - | 544 W/m² | - |
| 1777214578 | 21.67° C | 85% | 1013.1 hPa | 0 mm | - | 375 W/m² | - |
| 1777214274 | 21.11° C | 87% | 1013.4 hPa | 0 mm | - | 390 W/m² | - |
| 1777213972 | 21.67° C | 85% | 1013.3 hPa | 0 mm | - | 225 W/m² | - |
| 1777213667 | 21.67° C | 85% | 1013.2 hPa | 0 mm | - | 223 W/m² | - |
| 1777213364 | 21.67° C | 85% | 1013.2 hPa | 0 mm | - | 345 W/m² | - |
| 1777213061 | 21.67° C | 86% | 1013.2 hPa | 0 mm | - | 367 W/m² | - |
| 1777212758 | 21.11° C | 88% | 1013.3 hPa | 0 mm | - | 411 W/m² | - |
* Rain latest hour (hover to see other rain measurements)
** Current wind speed in m/s (hover to see current wind gust speed)